User: anonymous   Login
Location: Étavigny
(49.1201°N, 2.9800°E)
Time: 10:42:51
(UTC+00:00)
Language:

CORIOLIS - Orbit

View from above orbital plane
View from above orbital plane
View from above satellite
View from above satellite

Ground track
Ground track

The orbit data is extracted from the following two-line orbital elements,

1 27640U 03001A   23156.87322948  .00000109  00000-0  72778-4 0  9998
2 27640  98.7143 165.1585 0014631 156.4691 203.7157 14.19263769 57118
Epoch (UTC): 05 June 2023 20:57:27
Eccentricity: 0.0014631
inclination: 98.7143°
perigee height: 817 km
apogee height: 838 km
right ascension of ascending node: 165.1585°
argument of perigee: 156.4691°
revolutions per day: 14.19263769
mean anomaly at epoch: 203.7157°
orbit number at epoch: 5711

The dashed part of the orbit path shows where the satellite is in the earth's shadow,  

DLR